GLOBALSTAR M001 1 25162U 98008A 25257.97605008 -.00000087 00000+0 74961-4 0 9993 2 25162 52.0029 71.8829 0002332 85.2762 53.0124 12.38217286254838 GLOBALSTAR M004 1 25163U 98008B 25258.20390049 -.00000056 00000+0 26327-3 0 9995 2 25163 51.9995 139.5322 0003550 119.3339 32.8005 12.63403095273063 GLOBALSTAR M002 1 25164U 98008C 25258.00909997 -.00000070 00000+0 13011-3 0 9994 2 25164 52.0052 14.9892 0000817 328.1271 31.9499 11.61511900194506 GLOBALSTAR M003 1 25165U 98008D 25257.33622333 -.00000189 00000+0 -10586-2 0 9991 2 25165 51.9951 281.6180 0008342 110.7354 262.0939 12.12061130244036 GLOBALSTAR M014 1 25306U 98023A 25258.07879799 -.00000073 00000+0 75259-4 0 9998 2 25306 51.9843 296.1532 0001103 155.9401 218.1877 11.65481727201656 GLOBALSTAR M006 1 25307U 98023B 25257.99917815 -.00000058 00000+0 36774-3 0 9992 2 25307 51.9980 352.1815 0002585 262.5954 268.7014 11.58175693227239 GLOBALSTAR M015 1 25308U 98023C 25258.30081737 -.00000105 00000+0 -72358-3 0 9996 2 25308 51.9809 94.0290 0011748 234.6833 296.2419 11.48858918204435 GLOBALSTAR M008 1 25309U 98023D 25258.22761029 -.00000060 00000+0 28577-3 0 9990 2 25309 51.9970 297.0066 0002572 11.7880 17.8255 12.36072151248980 GLOBALSTAR M023 1 25621U 99004A 25257.96554368 -.00000038 00000+0 36653-3 0 9992 2 25621 52.0098 140.0644 0010003 329.0918 44.4763 12.62506216227074 GLOBALSTAR M040 1 25622U 99004B 25258.08365718 -.00000081 00000+0 12696-3 0 9995 2 25622 51.9909 143.9924 0000214 164.0769 339.9075 12.62016966226605 GLOBALSTAR M036 1 25623U 99004C 25258.24875328 -.00000045 00000+0 54501-3 0 9998 2 25623 52.0004 2.9362 0010652 220.4387 157.6243 11.86608542189673 GLOBALSTAR M038 1 25624U 99004D 25258.21659640 -.00000079 00000+0 12908-3 0 9995 2 25624 51.9966 172.2966 0001178 246.9670 278.4167 12.32532064213471 GLOBALSTAR M022 1 25649U 99012A 25258.12092375 -.00000119 00000+0 -38150-3 0 9990 2 25649 52.0055 46.4172 0002564 10.2365 161.6036 12.02502551187195 GLOBALSTAR M041 1 25650U 99012B 25258.09279521 -.00000100 00000+0 -19463-3 0 9994 2 25650 52.0020 290.6924 0001573 131.6612 228.4359 11.96682766189044 GLOBALSTAR M046 1 25651U 99012C 25258.25608334 -.00000056 00000+0 35531-3 0 9994 2 25651 52.0092 352.8998 0002530 83.5470 302.3975 12.09413487194563 GLOBALSTAR M037 1 25652U 99012D 25258.19266998 -.00000054 00000+0 27830-3 0 9995 2 25652 51.9990 269.9598 0002160 31.7165 13.2612 12.62451229222640 GLOBALSTAR M045 1 25676U 99019A 25258.13740069 -.00000073 00000+0 18027-3 0 9997 2 25676 51.9980 48.8886 0001011 82.0068 90.0702 12.27065882204431 GLOBALSTAR M019 1 25677U 99019B 25258.20338981 -.00000063 00000+0 27647-3 0 9999 2 25677 51.9873 185.4035 0001320 114.8569 30.4193 12.13877258196075 GLOBALSTAR M044 1 25678U 99019C 25258.22488193 .00000004 00000+0 12172-2 0 9993 2 25678 51.9957 147.9695 0005441 211.2373 295.0363 11.90258296182046 GLOBALSTAR M042 1 25679U 99019D 25258.13266626 -.00000051 00000+0 38653-3 0 9995 2 25679 52.0004 157.0356 0003346 112.8245 34.1732 12.22087319196256 GLOBALSTAR M025 1 25770U 99031A 25257.16526785 -.00000067 00000+0 11720-4 0 9992 2 25770 51.9835 313.1510 0001904 292.2485 100.7434 11.22559652491702 GLOBALSTAR M049 1 25771U 99031B 25258.23057547 .00000043 00000+0 37633-2 0 9999 2 25771 51.9920 349.9702 0003261 158.8336 201.2596 11.12120655127447 GLOBALSTAR M047 1 25772U 99031C 25258.22310064 -.00000062 00000+0 20114-3 0 9994 2 25772 51.9871 338.3549 0016573 58.7443 301.4984 11.31929477481303 GLOBALSTAR M052 1 25773U 99031D 25258.08108258 -.00000113 00000+0 -15857-2 0 9994 2 25773 51.9848 97.7152 0002401 343.5010 197.1378 11.15060872488530 GLOBALSTAR M035 1 25851U 99037A 25258.28102435 -.00000032 00000+0 12086-2 0 9990 2 25851 51.9925 214.0467 0013384 125.9022 24.0266 11.04539590106215 GLOBALSTAR M032 1 25852U 99037B 25258.10216634 -.00000040 00000+0 86216-3 0 9995 2 25852 51.9984 33.4388 0011867 319.8858 40.1065 11.19063419144857 GLOBALSTAR M051 1 25853U 99037C 25258.19270257 -.00000074 00000+0 -60248-4 0 9992 2 25853 51.9782 183.7640 0001067 31.0552 329.0322 11.42205681142677 GLOBALSTAR M030 1 25854U 99037D 25258.25278268 -.00000059 00000+0 33661-3 0 9990 2 25854 51.9916 343.9997 0003222 199.8486 160.2206 11.55113478160454 GLOBALSTAR M048 1 25872U 99041A 25258.05767953 -.00000076 00000+0 -17443-3 0 9997 2 25872 51.9350 122.5994 0013477 344.4309 164.2095 11.33859077135178 GLOBALSTAR M026 1 25873U 99041B 25257.94478314 .00000003 00000+0 24642-2 0 9991 2 25873 52.0047 331.8136 0001813 69.9408 100.8189 11.06850215158425 GLOBALSTAR M043 1 25874U 99041C 25258.20637701 -.00000047 00000+0 63871-3 0 9996 2 25874 51.9372 233.4768 0013489 103.4806 270.8393 11.25696439133011 GLOBALSTAR M028 1 25875U 99041D 25257.34809165 -.00000089 00000+0 68945-4 0 9990 2 25875 51.9620 287.2049 0063130 264.9471 94.4182 12.50587605201336 GLOBALSTAR M024 1 25883U 99043A 25258.04376279 .00000004 00000+0 24445-2 0 9995 2 25883 52.0001 177.8740 0000827 267.0445 105.3400 11.10166154124843 GLOBALSTAR M027 1 25884U 99043B 25258.28441650 -.00000056 00000+0 29669-3 0 9990 2 25884 52.0184 257.8683 0021327 136.5357 223.7122 11.04372599151190 GLOBALSTAR M054 1 25885U 99043C 25258.31865843 -.00000035 00000+0 92366-3 0 9990 2 25885 52.0182 9.9630 0004824 334.0306 59.5795 11.39220759129328 GLOBALSTAR M053 1 25886U 99043D 25258.21409447 -.00000051 00000+0 52357-3 0 9998 2 25886 52.0011 322.3077 0003334 230.2141 162.1441 11.27666669129607 GLOBALSTAR M058 1 25907U 99049A 25258.27830098 -.00000057 00000+0 36851-3 0 9991 2 25907 51.9920 228.6071 0002418 80.7687 279.3421 11.93202940552290 GLOBALSTAR M050 1 25908U 99049B 25258.18654637 -.00000149 00000+0 -69108-3 0 9999 2 25908 51.9969 229.8041 0008804 211.1415 163.6238 12.07456961159067 GLOBALSTAR M033 1 25909U 99049C 25257.95882971 -.00000109 00000+0 -16390-3 0 9999 2 25909 51.9897 96.0589 0014821 88.1770 272.0775 12.20298009546705 GLOBALSTAR M055 1 25910U 99049D 25257.84981390 -.00000093 00000+0 13867-4 0 9992 2 25910 52.0005 102.7488 0006630 324.9641 35.0774 12.29432122179310 GLOBALSTAR M057 1 25943U 99058A 25257.71762491 -.00000108 00000+0 -13694-3 0 9998 2 25943 51.9973 94.1157 0002366 178.3993 181.6864 12.24826782177903 GLOBALSTAR M059 1 25944U 99058B 25258.21382887 .00000007 00000+0 11528-2 0 9991 2 25944 52.0042 323.6244 0000822 126.2891 275.9148 11.99986643584856 GLOBALSTAR M056 1 25945U 99058C 25257.96729389 -.00000087 00000+0 47325-5 0 9991 2 25945 51.9986 323.9476 0000797 25.9440 145.2968 12.04778969173443 GLOBALSTAR M031 1 25946U 99058D 25258.15866606 -.00000076 00000+0 14556-3 0 9994 2 25946 51.9952 210.3640 0001699 11.7773 2.5741 12.16040372175497 GLOBALSTAR M039 1 25961U 99062A 25257.95509546 -.00000082 00000+0 12044-3 0 9997 2 25961 51.9876 355.2999 0002830 174.2366 185.8534 12.62332030191552 GLOBALSTAR M034 1 25962U 99062B 25258.05621102 -.00000077 00000+0 63040-4 0 9990 2 25962 51.9861 137.7797 0013442 209.4282 298.9404 11.79448332148997 GLOBALSTAR M029 1 25963U 99062C 25258.25201466 -.00000069 00000+0 21772-3 0 9996 2 25963 51.9789 211.4758 0002469 305.5987 195.5918 11.99900918179936 GLOBALSTAR M061 1 25964U 99062D 25258.23796499 -.00000062 00000+0 30289-3 0 9996 2 25964 51.9818 322.5405 0006326 133.8678 260.5830 11.76776270131782 GLOBALSTAR M063 1 26081U 00008A 25258.22868650 -.00000051 00000+0 46950-3 0 9997 2 26081 51.9929 234.4342 0004513 126.6410 247.7152 11.86176132168266 GLOBALSTAR M062 1 26082U 00008B 25258.13941310 -.00000072 00000+0 18484-3 0 9997 2 26082 51.9839 191.2585 0007063 308.1038 65.6323 12.43472037507814 GLOBALSTAR M060 1 26083U 00008C 25258.13173605 -.00000188 00000+0 -96280-3 0 9991 2 26083 52.0013 164.0141 0003266 319.9643 187.6610 12.17664570163324 GLOBALSTAR M064 1 26084U 00008D 25258.21401766 -.00000042 00000+0 59068-3 0 9994 2 26084 52.0059 332.2423 0001393 213.0123 147.0623 11.88536409177801 GLOBALSTAR M065 1 31571U 07020A 25258.18721312 -.00000105 00000+0 -54000-5 0 9994 2 31571 51.9909 312.3366 0010425 146.4754 230.1216 12.62010332844774 GLOBALSTAR M069 1 31573U 07020C 25258.19343719 -.00000073 00000+0 18330-3 0 9995 2 31573 52.0046 310.4639 0001371 303.9874 90.5489 12.23461893845146 GLOBALSTAR M072 1 31574U 07020D 25258.03291747 -.00000087 00000+0 -41363-4 0 9991 2 31574 51.9915 112.7791 0001627 109.9530 42.1360 11.91651751842178 GLOBALSTAR M071 1 31576U 07020F 25258.20701118 -.00000021 00000+0 69095-3 0 9998 2 31576 52.0090 338.5814 0000347 275.0408 108.7229 12.18257773505914 GLOBALSTAR M067 1 32263U 07048A 25257.84266567 -.00000080 00000+0 12794-3 0 9994 2 32263 51.9717 133.5921 0001110 131.6533 308.3552 12.40677837820615 GLOBALSTAR M070 1 32264U 07048B 25258.26017852 -.00000085 00000+0 10554-3 0 9990 2 32264 51.9738 214.1027 0000510 37.2135 103.5939 12.62322526825046 GLOBALSTAR M066 1 32265U 07048C 25258.02531495 -.00000101 00000+0 -56390-4 0 9998 2 32265 51.9577 127.8188 0004434 175.1532 326.4402 12.30376690826350 GLOBALSTAR M068 1 32266U 07048D 25258.08836079 -.00000072 00000+0 17968-3 0 9994 2 32266 51.9908 28.2048 0000844 20.0301 151.4211 12.62828420828917 GLOBALSTAR M079 1 37188U 10054A 25258.19873708 -.00000084 00000+0 10771-3 0 9993 2 37188 52.0022 225.7768 0000568 89.6752 284.2463 12.62266681687823 GLOBALSTAR M074 1 37189U 10054B 25258.22549028 -.00000093 00000+0 61978-4 0 9999 2 37189 52.0000 225.0050 0000258 76.7469 297.8313 12.62271324688437 GLOBALSTAR M076 1 37190U 10054C 25258.17278219 -.00000087 00000+0 94185-4 0 9995 2 37190 52.0014 225.3446 0000396 109.8599 264.9821 12.62265239688146 GLOBALSTAR M077 1 37191U 10054D 25258.26954682 -.00000094 00000+0 57282-4 0 9996 2 37191 52.0067 181.9163 0000553 64.8587 100.7579 12.62323316688520 GLOBALSTAR M075 1 37192U 10054E 25258.02819356 -.00000079 00000+0 13761-3 0 9995 2 37192 51.9931 267.9931 0000305 93.8410 284.3628 12.62267697687194 GLOBALSTAR M073 1 37193U 10054F 25258.30118841 -.00000105 00000+0 -78930-5 0 9990 2 37193 52.0054 181.0480 0000611 81.6096 97.4456 12.62262474689218 GLOBALSTAR M083 1 37739U 11033A 25258.07021905 -.00000104 00000+0 -39424-5 0 9996 2 37739 51.9847 130.3596 0000888 77.6998 71.3472 12.62275643658205 GLOBALSTAR M088 1 37740U 11033B 25258.12798679 -.00000108 00000+0 -22886-4 0 9990 2 37740 52.0232 35.9413 0000734 88.8017 82.5531 12.62267805653757 GLOBALSTAR M091 1 37741U 11033C 25258.06178426 -.00000099 00000+0 28780-4 0 9993 2 37741 52.0027 359.5148 0000814 90.3688 81.4497 12.62270068654532 GLOBALSTAR M085 1 37742U 11033D 25258.17690178 -.00000090 00000+0 78448-4 0 9996 2 37742 52.0136 310.2203 0000633 92.0355 302.5536 12.62264642655060 GLOBALSTAR M081 1 37743U 11033E 25258.20363353 -.00000088 00000+0 89655-4 0 9992 2 37743 51.9971 312.8893 0000627 112.4364 282.8292 12.62268106655214 GLOBALSTAR M089 1 37744U 11033F 25258.08574898 -.00000078 00000+0 14214-3 0 9994 2 37744 51.9915 267.4571 0000176 145.6725 254.4942 12.62266667656048 GLOBALSTAR M084 1 38040U 11080A 25258.04203074 -.00000105 00000+0 -82503-5 0 9997 2 38040 51.9998 134.9245 0000452 88.9066 52.1080 12.62268906634016 GLOBALSTAR M080 1 38041U 11080B 25258.09495258 -.00000104 00000+0 -12842-5 0 9998 2 38041 52.0050 136.3871 0001021 48.7540 102.1066 12.62268940634145 GLOBALSTAR M082 1 38042U 11080C 25258.27290887 -.00000100 00000+0 21328-4 0 9993 2 38042 52.0066 91.3138 0001098 65.2887 105.5004 12.62268669634878 GLOBALSTAR M092 1 38043U 11080D 25257.98923501 -.00000093 00000+0 57779-4 0 9997 2 38043 52.0078 182.5605 0000523 61.1759 19.0929 12.62265846633293 GLOBALSTAR M090 1 38044U 11080E 25258.29932164 -.00000112 00000+0 -45015-4 0 9991 2 38044 52.0115 85.0999 0000978 85.1317 85.4661 12.62262385634992 GLOBALSTAR M086 1 38045U 11080F 25258.24571403 -.00000105 00000+0 -75300-5 0 9995 2 38045 51.9888 85.6399 0001413 130.8010 40.4194 12.62276908634933 GLOBALSTAR M097 1 39072U 13005A 25258.31445313 -.00000112 00000+0 -43590-4 0 9996 2 39072 52.0075 0.0740 0000784 105.4498 254.6455 12.62265645582198 GLOBALSTAR M093 1 39073U 13005B 25258.28840740 -.00000095 00000+0 50837-4 0 9997 2 39073 52.0136 353.3960 0000997 103.8476 256.2502 12.62264249582144 GLOBALSTAR M094 1 39074U 13005C 25258.20901985 -.00000080 00000+0 13141-3 0 9999 2 39074 51.9946 268.0288 0000571 95.6068 264.4864 12.62269910583749 GLOBALSTAR M096 1 39075U 13005D 25258.14299104 -.00000089 00000+0 85128-4 0 9990 2 39075 52.0087 316.8154 0000699 99.8964 260.1982 12.62266720582653 GLOBALSTAR M078 1 39076U 13005E 25258.11689505 -.00000102 00000+0 10133-4 0 9996 2 39076 51.9888 41.2795 0001255 51.9285 308.1695 12.62260080581279 GLOBALSTAR M095 1 39077U 13005F 25258.06369661 -.00000107 00000+0 -17258-4 0 9990 2 39077 52.0096 38.6541 0001198 81.0444 279.0558 12.62259843581122 GLOBALSTAR M087 1 52888U 22064A 25258.15681881 -.00000089 00000+0 79830-4 0 9993 2 52888 51.9987 179.7734 0000794 62.4059 297.6888 12.62301409156408